EST,Max TemperatureF,Mean TemperatureF,Min TemperatureF,Max Dew PointF,MeanDew PointF,Min DewpointF,Max Humidity, Mean Humidity, Min Humidity, Max Sea Level PressureIn, Mean Sea Level PressureIn, Min Sea Level PressureIn, Max VisibilityMiles, Mean VisibilityMiles, Min VisibilityMiles, Max Wind SpeedMPH, Mean Wind SpeedMPH, Max Gust SpeedMPH,PrecipitationIn, CloudCover, Events, WindDirDegrees
2012-12-1,64,52,39,54,44,39,100,90,55,30.41,30.35,30.32,10,7,0,10,2,,0.00,2,Fog,55
2012-12-2,66,55,44,57,50,43,100,93,68,30.41,30.34,30.29,10,7,0,12,3,,0.00,5,,62
2012-12-3,75,60,46,61,52,45,100,94,57,30.34,30.30,30.26,10,5,0,12,2,,0.00,3,Fog,188
2012-12-4,69,61,53,61,56,43,100,91,45,30.36,30.29,30.25,10,7,0,12,2,,0.00,6,,185
2012-12-5,75,62,48,59,55,48,100,86,44,30.24,30.18,30.10,10,9,0,12,5,,0.00,1,,263
2012-12-6,60,55,50,57,48,41,94,80,63,31.19,30.20,30.15,10,10,10,17,12,,0.00,5,,38
2012-12-7,64,56,48,63,51,45,100,87,76,30.14,30.07,29.99,10,8,0,16,9,,0.00,8,Fog-Rain,9
2012-12-8,62,58,51,57,55,50,100,94,77,30.09,30.04,29.98,10,4,0,13,6,,0.00,5,Fog,278
2012-12-9,69,60,50,64,56,48,100,94,78,30.16,30.08,30.00,10,6,0,12,2,,0.00,5,Fog,86
2012-12-10,69,66,62,66,63,59,100,94,78,29.99,29.89,29.79,10,6,0,17,5,16,0.00,5,,199
2012-12-11,71,66,60,66,62,57,100,89,64,30.08,29.90,29.79,10,10,7,15,9,23,0.00,4,,239
2012-12-12,60,51,42,61,51,41,100,95,87,30.24,30.14,30.04,10,7,2,21,8,30,0.10,8,Rain,11
2012-12-13,50,46,39,45,41,39,100,90,76,30.32,30.23,30.13,10,9,5,20,14,24,0.06,6,Rain,360
2012-12-14,57,46,35,43,38,36,100,85,44,30.36,30.29,30.24,10,10,8,14,7,,0.00,0,,358
2012-12-15,60,48,37,57,45,37,100,87,51,30.25,30.18,30.09,10,8,0,9,5,,0.01,5,Rain,8
2012-12-16,62,58,53,61,56,52,100,96,88,30.11,30.04,29.91,10,3,0,13,3,,0.01,7,Fog,212
2012-12-17,64,62,59,63,61,57,100,95,88,29.91,29.85,29.73,10,10,9,17,8,,0.02,7,Rain,220
2012-12-18,66,56,46,57,50,34,100,75,40,29.97,29.80,29.74,10,10,10,18,9,28,0.02,3,,256
2012-12-19,66,54,42,48,38,34,100,68,32,30.12,30.03,29.96,10,10,2,17,8,16,0.00,0,,268
2012-12-20,68,54,39,63,49,39,100,89,68,30.12,29.99,29.60,10,8,2,28,5,41,0.21,2,Rain,182
2012-12-21,62,52,41,61,32,21,94,55,32,29.91,29.76,29.61,10,10,10,26,19,41,0.32,2,,270
2012-12-22,51,43,35,27,22,19,57,48,28,30.15,30.04,29.91,10,10,10,17,12,25,0.00,0,,279
2012-12-23,53,42,30,41,30,25,93,65,44,30.21,30.13,30.09,10,10,10,10,5,,0.00,0,,238
2012-12-24,60,50,41,46,36,28,87,61,41,30.10,30.04,29.94,10,10,10,17,5,,0.00,2,Rain,229
2012-12-25,59,50,41,54,48,39,100,92,77,30.11,30.01,29.96,10,9,2,15,3,22,0.01,4,,67
2012-12-26,68,56,42,63,52,30,100,87,52,29.98,29.75,29.48,10,8,1,21,15,32,0.21,6,Rain-Thunderstorm,123
2012-12-27,53,44,35,37,33,30,100,72,47,30.06,29.91,29.75,10,10,10,18,12,24,0.00,0,,279
2012-12-28,51,42,33,43,35,30,100,85,57,30.17,30.09,29.97,10,10,10,12,4,,0.00,1,,18
2012-12-29,55,50,44,50,44,34,100,85,63,29.99,29.82,29.71,10,9,3,16,8,24,0.16,6,Rain,337
2012-12-30,48,38,28,36,28,19,93,68,32,30.42,30.22,30.00,10,10,10,17,10,22,0.00,0,,306
2012-12-31,55,40,24,45,31,19,100,78,35,30.45,30.34,30.19,10,10,10,13,2,,0.00,2,,197